Rolla, ND

5:33 AM CST on February 24, 2017 (GMT -0600)
Rolla

Weather History for K06D - March, 2014

Change the Weather History Date:

Monday, March 24, 2014

  Actual Average (KRUG) Record (KRUG)
Temperature  
Mean Temperature 12 °F -  
Max Temperature 19 °F 40 °F 72 °F (1963)
Min Temperature 6 °F 22 °F -16 °F (1974)
Degree Days  
Heating Degree Days 52    
Moisture  
Dew Point 3 °F    
Average Humidity 68    
Maximum Humidity 85    
Minimum Humidity 57    
Precipitation  
Precipitation 0.00 in - - ()
Sea Level Pressure  
Sea Level Pressure 30.21 in    
Wind  
Wind Speed 14 mph (NW)    
Max Wind Speed 30 mph    
Max Gust Speed 38 mph    
Visibility 10 miles    
Events Snow    
Averages and records for this station are not official NWS values.
T = Trace of Precipitation, MM = Missing Value Source: NWS Daily Summary

Daily Weather History Graph

Daily Weather History Graph

Search for Another Location

Airport or City:

Trip Planner

Search our weather history database for the weather conditions in past years. The results will help you decide how hot, cold, wet, or windy it might be!

Date:

Astronomy

Mar. 24, 2014 Rise Set
Actual Time 7:32 AM CDT 7:57 PM CDT
Civil Twilight 7:01 AM CDT 8:29 PM CDT
Nautical Twilight 6:23 AM CDT 9:06 PM CDT
Astronomical Twilight 5:44 AM CDT 9:45 PM CDT
Moon 3:32 AM CDT 12:57 PM CDT
Length of Visible Light 13h 28m
Length of Day
12h 24m
Last Quarter, 43% of the Moon is Illuminated
Mar 24
Last Quarter
Mar 30
New
Apr 7
First Quarter
Apr 15
Full
Apr 22
Last Quarter

Hourly Weather History & Observations

Time (CDT) Temp. Windchill Dew Point Humidity Pressure Visibility Wind Dir Wind Speed Gust Speed Precip Events Conditions
12:15 AM 8.6 °F -1.3 °F 5.0 °F 85% 30.25 in 10.0 mi West 5.8 mph - N/A   Clear
12:35 AM 8.6 °F -2.6 °F 5.0 °F 85% 30.25 in 10.0 mi West 6.9 mph - N/A   Clear
12:55 AM 8.6 °F -3.7 °F 5.0 °F 85% 30.25 in 10.0 mi WNW 8.1 mph - N/A   Clear
1:15 AM 8.6 °F -6.3 °F 3.2 °F 79% 30.25 in 10.0 mi NW 11.5 mph - N/A   Clear
1:35 AM 8.6 °F -5.5 °F 1.4 °F 73% 30.24 in 10.0 mi NW 10.4 mph - N/A   Clear
2:15 AM 8.6 °F -3.7 °F 1.4 °F 73% 30.24 in 10.0 mi WNW 8.1 mph - N/A   Clear
2:55 AM 6.8 °F -6.9 °F 1.4 °F 79% 30.24 in 10.0 mi WNW 9.2 mph - N/A   Clear
3:15 AM 6.8 °F -6.9 °F 1.4 °F 79% 30.23 in 10.0 mi WNW 9.2 mph - N/A   Clear
3:35 AM 6.8 °F -6.9 °F -0.4 °F 72% 30.23 in 10.0 mi WNW 9.2 mph - N/A   Clear
3:55 AM 6.8 °F -6.9 °F -0.4 °F 72% 30.22 in 10.0 mi WNW 9.2 mph - N/A   Clear
4:15 AM 6.8 °F -5.9 °F -0.4 °F 72% 30.22 in 10.0 mi WNW 8.1 mph - N/A   Clear
4:35 AM 6.8 °F -3.5 °F -0.4 °F 72% 30.22 in 10.0 mi West 5.8 mph - N/A   Clear
4:55 AM 6.8 °F -4.8 °F -0.4 °F 72% 30.21 in 10.0 mi West 6.9 mph - N/A   Clear
5:15 AM 6.8 °F -8.6 °F -0.4 °F 72% 30.21 in 10.0 mi West 11.5 mph - N/A   Mostly Cloudy
5:35 AM 6.8 °F -10.0 °F -0.4 °F 72% 30.20 in 10.0 mi West 13.8 mph - N/A   Overcast
5:55 AM 6.8 °F -8.6 °F -0.4 °F 72% 30.20 in 10.0 mi West 11.5 mph - N/A   Mostly Cloudy
6:15 AM 6.8 °F -9.3 °F -0.4 °F 72% 30.20 in 10.0 mi West 12.7 mph - N/A   Mostly Cloudy
6:35 AM 8.6 °F -6.3 °F 1.4 °F 73% 30.20 in 10.0 mi West 11.5 mph 16.1 mph N/A   Clear
6:55 AM 8.6 °F -7.0 °F 1.4 °F 73% 30.20 in 10.0 mi West 12.7 mph - N/A   Clear
7:15 AM 8.6 °F -6.3 °F 3.2 °F 79% 30.20 in 10.0 mi West 11.5 mph - N/A   Clear
7:35 AM 8.6 °F -5.5 °F 3.2 °F 79% 30.20 in 10.0 mi West 10.4 mph - N/A   Clear
7:55 AM 8.6 °F -4.7 °F 3.2 °F 79% 30.19 in 10.0 mi West 9.2 mph - N/A   Clear
8:15 AM 10.4 °F -4.8 °F 5.0 °F 79% 30.19 in 10.0 mi WNW 12.7 mph - N/A   Clear
8:35 AM 10.4 °F -5.4 °F 5.0 °F 79% 30.19 in 10.0 mi WNW 13.8 mph 18.4 mph N/A   Clear
8:55 AM 14.0 °F -1.4 °F 5.0 °F 67% 30.18 in 10.0 mi WNW 15.0 mph - N/A   Clear
9:15 AM 14.0 °F -1.4 °F 6.8 °F 73% 30.19 in 10.0 mi WNW 15.0 mph - N/A   Clear
9:35 AM 15.8 °F 0.3 °F 6.8 °F 68% 30.19 in 10.0 mi WNW 16.1 mph - N/A   Clear
9:55 AM 15.8 °F 2.1 °F 6.8 °F 68% 30.18 in 10.0 mi WNW 12.7 mph - N/A   Clear
10:15 AM 17.6 °F 3.7 °F 6.8 °F 63% 30.18 in 10.0 mi NW 13.8 mph - N/A   Clear
10:35 AM 17.6 °F 3.2 °F 6.8 °F 63% 30.18 in 10.0 mi WNW 15.0 mph - N/A   Clear
10:55 AM 17.6 °F 2.2 °F 6.8 °F 63% 30.19 in 10.0 mi NW 17.3 mph - N/A   Clear
11:15 AM 17.6 °F 2.7 °F 6.8 °F 63% 30.19 in 10.0 mi NW 16.1 mph 19.6 mph N/A   Clear
11:35 AM 17.6 °F 2.2 °F 5.0 °F 58% 30.19 in 10.0 mi NW 17.3 mph - N/A   Clear
11:55 AM 19.4 °F 5.0 °F 6.8 °F 58% 30.19 in 10.0 mi NNW 16.1 mph - N/A   Scattered Clouds
12:15 PM 19.4 °F 4.1 °F 6.8 °F 58% 30.19 in 10.0 mi NNW 18.4 mph 24.2 mph N/A   Scattered Clouds
12:35 PM 19.4 °F 3.2 °F 8.6 °F 63% 30.19 in 10.0 mi NW 20.7 mph 27.6 mph N/A   Clear
12:55 PM 19.4 °F 3.6 °F 8.6 °F 63% 30.19 in 10.0 mi NW 19.6 mph 26.5 mph N/A   Partly Cloudy
1:15 PM 19.4 °F 1.8 °F 6.8 °F 58% 30.19 in 10.0 mi NW 25.3 mph 34.5 mph N/A Snow Light Snow
1:35 PM 19.4 °F 2.5 °F 8.6 °F 63% 30.19 in 10.0 mi NNW 23.0 mph 31.1 mph N/A   Partly Cloudy
1:55 PM 19.4 °F 1.1 °F 8.6 °F 63% 30.19 in 10.0 mi NW 27.6 mph 33.4 mph N/A   Partly Cloudy
2:15 PM 19.4 °F 2.5 °F 8.6 °F 63% 30.19 in 10.0 mi NNW 23.0 mph 34.5 mph N/A   Scattered Clouds
2:35 PM 17.6 °F -0.3 °F 6.8 °F 63% 30.19 in 10.0 mi NNW 24.2 mph 38.0 mph N/A   Mostly Cloudy
2:55 PM 17.6 °F -1.3 °F 6.8 °F 63% 30.19 in 10.0 mi NW 27.6 mph 36.8 mph N/A   Scattered Clouds
3:15 PM 17.6 °F -1.0 °F 6.8 °F 63% 30.19 in 10.0 mi NW 26.5 mph 35.7 mph N/A   Mostly Cloudy
3:35 PM 17.6 °F -1.3 °F 6.8 °F 63% 30.19 in 10.0 mi NNW 27.6 mph 36.8 mph N/A   Mostly Cloudy
3:55 PM 17.6 °F -1.9 °F 5.0 °F 58% 30.19 in 10.0 mi NW 29.9 mph 38.0 mph N/A   Mostly Cloudy
4:15 PM 15.8 °F -3.1 °F 5.0 °F 62% 30.19 in 10.0 mi NW 25.3 mph 35.7 mph N/A   Mostly Cloudy
4:35 PM 14.0 °F -6.5 °F 3.2 °F 62% 30.20 in 10.0 mi NNW 28.8 mph 33.4 mph N/A   Scattered Clouds
4:55 PM 15.8 °F -4.4 °F 3.2 °F 58% 30.20 in 10.0 mi NW 29.9 mph 36.8 mph N/A   Partly Cloudy
5:15 PM 15.8 °F -3.4 °F 3.2 °F 58% 30.20 in 10.0 mi NW 26.5 mph 35.7 mph N/A   Scattered Clouds
5:35 PM 14.0 °F -6.2 °F 1.4 °F 57% 30.20 in 10.0 mi NW 27.6 mph 33.4 mph N/A   Partly Cloudy
5:55 PM 14.0 °F -6.2 °F 1.4 °F 57% 30.20 in 10.0 mi NW 27.6 mph 38.0 mph N/A   Partly Cloudy
6:15 PM 14.0 °F -5.8 °F 1.4 °F 57% 30.20 in 10.0 mi NW 26.5 mph 34.5 mph N/A   Scattered Clouds
6:35 PM 12.2 °F -7.5 °F -0.4 °F 57% 30.21 in 10.0 mi NW 24.2 mph 35.7 mph N/A   Partly Cloudy
6:55 PM 12.2 °F -8.2 °F -0.4 °F 57% 30.21 in 10.0 mi NW 26.5 mph 34.5 mph N/A   Clear
7:15 PM 10.4 °F -11.7 °F -0.4 °F 62% 30.21 in 10.0 mi NW 29.9 mph 34.5 mph N/A   Clear
7:35 PM 10.4 °F -9.9 °F -0.4 °F 62% 30.21 in 10.0 mi NW 24.2 mph 29.9 mph N/A   Clear
7:55 PM 10.4 °F -8.2 °F 1.4 °F 67% 30.22 in 10.0 mi NW 19.6 mph 28.8 mph N/A   Clear
8:15 PM 10.4 °F -7.7 °F 1.4 °F 67% 30.22 in 10.0 mi NW 18.4 mph - N/A   Clear
8:35 PM 8.6 °F -11.0 °F 1.4 °F 73% 30.23 in 10.0 mi NW 20.7 mph 26.5 mph N/A   Mostly Cloudy
8:55 PM 8.6 °F -11.9 °F -0.4 °F 67% 30.23 in 10.0 mi NW 23.0 mph 32.2 mph N/A   Overcast
9:15 PM 8.6 °F -11.9 °F -0.4 °F 67% 30.24 in 10.0 mi NW 23.0 mph 28.8 mph N/A   Overcast
9:35 PM 8.6 °F -11.9 °F -0.4 °F 67% 30.24 in 10.0 mi NW 23.0 mph 33.4 mph N/A   Scattered Clouds
9:55 PM 6.8 °F -15.9 °F -0.4 °F 72% 30.24 in 10.0 mi NW 27.6 mph 35.7 mph N/A   Clear
10:15 PM 6.8 °F -15.1 °F -0.4 °F 72% 30.24 in 10.0 mi NW 25.3 mph 31.1 mph N/A   Clear
10:35 PM 6.8 °F -12.9 °F -0.4 °F 72% 30.25 in 10.0 mi NW 19.6 mph 32.2 mph N/A   Partly Cloudy
10:55 PM 6.8 °F -15.1 °F -0.4 °F 72% 30.25 in 10.0 mi NW 25.3 mph 34.5 mph N/A   Scattered Clouds
11:15 PM 6.8 °F -13.4 °F -0.4 °F 72% 30.25 in 10.0 mi NNW 20.7 mph 31.1 mph N/A   Mostly Cloudy
11:35 PM 6.8 °F -12.9 °F -0.4 °F 72% 30.25 in 10.0 mi NW 19.6 mph 29.9 mph N/A   Overcast
11:55 PM 6.8 °F -12.9 °F -0.4 °F 72% 30.25 in 10.0 mi NNW 19.6 mph 27.6 mph N/A   Mostly Cloudy